Regional Weather Roundup
Issued by NWS

Home | Current Version | Previous Version | Text Only | Print | Product List | Glossary Off
Versions: 1 2 3 4 5 6 7 8 9 10 11 12 13 14 15 16 17 18 19 20 21 22 23 24 25 26 27 28 29 30 31 32 33 34 35 36 37 38 39 40 41 42 43 44 45 46 47 48 49 50

000
ASUS45 KABQ 251810
RWRNM
NEW MEXICO REGIONAL WEATHER ROUNDUP
NATIONAL WEATHER SERVICE ALBUQUERQUE NM
1200 PM MDT WED MAY 25 2016

NOTE: "FAIR" MEANS FEW OR NO CLOUDS BELOW 12,000 FEET AGL WITH NO
       SIGNIFICANT WEATHER OR OBSTRUCTIONS TO VISION.

      THIS PRODUCT IS RELEASED AS TWO VERSIONS.  ONE VERSION NEAR
      THE TOP OF THE HOUR CONTAINING PRELIMINARY DATA FROM ALBUQUERQUE
      AND OTHER STATIONS.  A FINAL VERSION WITH ADDITIONAL DATA IS
      ISSUED ABOUT 10 MINUTES AFTER THE HOUR.

NMZ501-503-504-510>518-251900-
NORTHWEST PLATEAU/NORTHCENTRAL MOUNTAINS

CITY           SKY/WX    TMP DP  RH WIND       PRES   REMARKS
FARMINGTON     FAIR      67  12  12 VRB7      30.10F
6HR MIN TEMP:  46; 6HR MAX TEMP:  68;

LOS ALAMOS     FAIR      65   7  10 SW8       30.18F
SANTA FE       FAIR      71  10   9 SW14G22   30.14F
6HR MIN TEMP:  40; 6HR MAX TEMP:  71;

TAOS           FAIR      64  10  12 SW18      30.17F
ANGEL FIRE     FAIR      57  15  18 W20G28    30.22S

$$
NMZ402-403-502-505>509-251900-
WESTCENTRAL MOUNTAINS/SOUTHWEST MOUNTAINS

CITY           SKY/WX    TMP DP  RH WIND       PRES   REMARKS
GALLUP         FAIR      65  25  22 S10G22    30.15F
6HR MIN TEMP:  31; 6HR MAX TEMP:  67;

GRANTS         FAIR      70  15  12 SW3G26    30.17F
SILVER CITY      N/A     73  19  13 SW9G20    30.17S

$$
NMZ407-409-411-412-251900-
SOUTHERN DESERTS

CITY           SKY/WX    TMP DP  RH WIND       PRES   REMARKS
LORDSBURG      FAIR      79  25  13 SW10G21   30.09F
DEMING         FAIR      81  25  12 SW15G22   30.10F
6HR MIN TEMP:  49; 6HR MAX TEMP:  81;

LAS CRUCES     FAIR      80  25  13 SW20G28   30.12S
HOLLOMAN AFB   FAIR      81  13   7 VRB7G24   30.07F
ALAMOGORDO     FAIR      81  19  10 S15       30.10S
T OR C         FAIR      75  20  12 S5        30.09F
6HR MIN TEMP:  55; 6HR MAX TEMP:  76;


$$
NMZ519>523-251900-
CENTRAL VALLEYS/CENTRAL HIGHLANDS

CITY           SKY/WX    TMP DP  RH WIND       PRES   REMARKS
ALBUQUERQUE    FAIR      71  16  12 CALM      30.13F
6HR MIN TEMP:  54; 6HR MAX TEMP:  72;

DOUBLE EAGLE   SUNNY     70  16  12 CALM      30.15F
MORIARTY ARPT  FAIR      72  11   9 W12G21    30.16S
CLINES CORNERS FAIR      67  14  13 W24G32    30.17R
6HR MIN TEMP:  47; 6HR MAX TEMP:  68;

BELEN          FAIR      73  17  12 E3        30.11F
6HR MIN TEMP:  48; 6HR MAX TEMP:  73;

SOCORRO        FAIR      77  19  11 S13G20    30.08F
6HR MIN TEMP:  49; 6HR MAX TEMP:  79;


$$
NMZ524>526-539-540-251900-
SOUTHCENTRAL MOUNTAINS

CITY           SKY/WX    TMP DP  RH WIND       PRES   REMARKS
RUIDOSO          N/A     70  12  11 SW17G24   30.22S

$$
NMZ527>531-251900-
NORTHEAST HIGHLANDS/NORTHEAST PLAINS

CITY           SKY/WX    TMP DP  RH WIND       PRES   REMARKS
LAS VEGAS      FAIR      70   2   7 SW21      30.12R
6HR MIN TEMP:  49; 6HR MAX TEMP:  71;

RATON          FAIR      73  13  10 SW10      30.06S
6HR MIN TEMP:  49; 6HR MAX TEMP:  74;

CLAYTON        FAIR      78  18  10 SW10      30.02S
6HR MIN TEMP:  52; 6HR MAX TEMP:  78;


$$
NMZ532>537-251900-
EASTCENTRAL PLAINS

CITY           SKY/WX    TMP DP  RH WIND       PRES   REMARKS
TUCUMCARI      FAIR      86  17   8 W15G30    29.99S
6HR MIN TEMP:  52; 6HR MAX TEMP:  86;

CANNON AFB     FAIR      82  20  10 W21       30.04S
6HR MIN TEMP:  61; 6HR MAX TEMP:  82;

CLOVIS AIRPORT FAIR      82  28  14 SW17      30.04S

$$
NMZ028-029-538-251900-
SOUTHEAST PLAINS

CITY           SKY/WX    TMP DP  RH WIND       PRES   REMARKS
ROSWELL        FAIR      89  18   7 SW10G21   30.00F
6HR MIN TEMP:  55; 6HR MAX TEMP:  90;

ARTESIA        FAIR      88  19   8 SW20G33   30.01F
CARLSBAD       FAIR      90  22   8 W16G32    30.01F
6HR MIN TEMP:  65; 6HR MAX TEMP:  91;

HOBBS          SUNNY     88  18   7 SW23G31   30.04F


$$




USA.gov is the U.S. government's official web portal to all federal, state and local government web resources and services.